カタログに戻る

QIANFAN-42

運用中通信PO
NORAD 62243·PAYLOAD·🇨🇳 China

打ち上げ Dec 5, 2024 から Taiyuan Satellite Launch Center

Loading…

次のパス (今後24時間)

TLE

最新Source: Space-Track

元期: Sep 14, 2026, 21:23 UTC

1 62243U 24232G   26257.89112450  .00000367  00000-0  15172-3 0  9997
2 62243  89.0138   5.9656 0012762 257.9790 101.9973 14.24645911140682

AllMySatでQIANFAN-42をリアルタイム追跡

Download on the App Store